When you browse on this site, cookies collect data to enhance your experience and personalize the content and advertising you see.
Visit our Privacy Policy to learn more. By continuing to use the site, you agree to this use of cookies and data.
  • In Czech Republic
  • List of Countries
  • For 7 days
  • Water Temperature
  • Satellite Maps
  • Weather Map
  • Weather Widgets
  • user-avatar
    Login

    Hourly Weather Ankona

    Today, 11 December, Tuesday

    Time Temperature Precipitation Wind Pressure Humidity
    00:00 +7°C° 0.4 mm 3 mps 759 mmHg 56%
    01:00 +6°C° 0 mm 4 mps 758 mmHg 55%
    02:00 +6°C° 0.5 mm 4 mps 758 mmHg 54%
    03:00 +5°C° 0.5 mm 4 mps 758 mmHg 54%
    04:00 +5°C° 0.5 mm 4 mps 758 mmHg 53%
    05:00 +5°C° 0.3 mm 4 mps 758 mmHg 52%
    06:00 +5°C° 0.3 mm 4 mps 758 mmHg 50%
    07:00 +5°C° 0.3 mm 4 mps 758 mmHg 48%
    08:00 +6°C° 0.1 mm 4 mps 759 mmHg 46%
    09:00 +7°C° 0.1 mm 4 mps 759 mmHg 45%
    10:00 +8°C° 0.1 mm 4 mps 759 mmHg 43%
    11:00 +10°C° 0.3 mm 4 mps 759 mmHg 45%
    12:00 +10°C° 0.3 mm 3 mps 759 mmHg 47%
    13:00 +11°C° 0.3 mm 3 mps 759 mmHg 49%
    14:00 +10°C° 0.2 mm 3 mps 760 mmHg 54%
    15:00 +9°C° 0.2 mm 2 mps 760 mmHg 58%
    16:00 +9°C° 0.2 mm 2 mps 760 mmHg 63%
    17:00 +8°C° 0 mm 2 mps 760 mmHg 66%
    18:00 +7°C° 0 mm 2 mps 760 mmHg 69%
    19:00 +6°C° 0 mm 2 mps 760 mmHg 72%
    20:00 +5°C° 0.1 mm 3 mps 760 mmHg 70%
    21:00 +5°C° 0.1 mm 3 mps 761 mmHg 68%
    22:00 +4°C° 0.1 mm 3 mps 761 mmHg 66%
    23:00 +4°C° 0.1 mm 3 mps 761 mmHg 64%

    Tomorrow, 12 December, Wednesday

    Time Temperature Precipitation Wind Pressure Humidity
    00:00 +4°C° 0.1 mm 3 mps 761 mmHg 61%
    01:00 +4°C° 0.1 mm 3 mps 761 mmHg 58%
    02:00 +5°C° 0 mm 2 mps 761 mmHg 57%
    03:00 +4°C° 0 mm 2 mps 761 mmHg 55%
    04:00 +4°C° 0 mm 2 mps 760 mmHg 53%
    05:00 +4°C° 0 mm 2 mps 760 mmHg 52%
    06:00 +4°C° 0 mm 2 mps 761 mmHg 50%
    07:00 +4°C° 0 mm 2 mps 761 mmHg 49%
    08:00 +5°C° 0 mm 2 mps 761 mmHg 45%
    09:00 +7°C° 0 mm 2 mps 761 mmHg 41%
    10:00 +8°C° 0 mm 2 mps 761 mmHg 38%
    11:00 +9°C° 0 mm 2 mps 761 mmHg 34%
    12:00 +10°C° 0 mm 2 mps 761 mmHg 30%
    13:00 +12°C° 0 mm 2 mps 760 mmHg 27%
    14:00 +11°C° 0 mm 1 mps 760 mmHg 30%
    15:00 +10°C° 0 mm 1 mps 760 mmHg 34%
    16:00 +10°C° 0 mm 1 mps 760 mmHg 38%
    17:00 +9°C° 0 mm 1 mps 760 mmHg 40%
    18:00 +8°C° 0 mm 1 mps 760 mmHg 42%
    19:00 +7°C° 0 mm 1 mps 760 mmHg 44%
    20:00 +7°C° 0 mm 1 mps 760 mmHg 45%
    21:00 +7°C° 0 mm 1 mps 759 mmHg 46%
    22:00 +6°C° 0 mm 2 mps 759 mmHg 47%
    23:00 +6°C° 0 mm 2 mps 759 mmHg 48%

    Day after tomorrow, 13 December, Thursday

    Time Temperature Precipitation Wind Pressure Humidity
    00:00 +6°C° 0 mm 2 mps 759 mmHg 49%
    01:00 +6°C° 0 mm 2 mps 759 mmHg 50%
    02:00 +6°C° 0.2 mm 2 mps 758 mmHg 53%
    03:00 +6°C° 0.2 mm 2 mps 758 mmHg 55%
    04:00 +6°C° 0.2 mm 2 mps 758 mmHg 57%
    05:00 +6°C° 0.3 mm 2 mps 757 mmHg 61%
    06:00 +6°C° 0.3 mm 2 mps 757 mmHg 65%
    07:00 +6°C° 0.3 mm 2 mps 757 mmHg 68%
    08:00 +5°C° 0.2 mm 3 mps 757 mmHg 68%
    09:00 +7°C° 0.2 mm 3 mps 757 mmHg 67%
    10:00 +7°C° 0.2 mm 3 mps 757 mmHg 66%
    11:00 +8°C° 0.2 mm 3 mps 756 mmHg 64%
    12:00 +8°C° 0.2 mm 2 mps 756 mmHg 62%
    13:00 +9°C° 0.2 mm 2 mps 756 mmHg 59%
    14:00 +9°C° 0.1 mm 2 mps 756 mmHg 62%
    15:00 +8°C° 0.1 mm 2 mps 755 mmHg 64%
    16:00 +8°C° 0.1 mm 2 mps 755 mmHg 67%
    17:00 +7°C° 0.2 mm 3 mps 755 mmHg 69%
    18:00 +7°C° 0.2 mm 3 mps 755 mmHg 72%
    19:00 +5°C° 0.2 mm 4 mps 755 mmHg 74%
    20:00 +5°C° 0.3 mm 4 mps 756 mmHg 75%
    21:00 +5°C° 0.3 mm 4 mps 756 mmHg 75%
    22:00 +5°C° 0.3 mm 5 mps 756 mmHg 76%
    23:00 +5°C° 0.3 mm 5 mps 756 mmHg 77%

    14 December, Friday

    Time Temperature Precipitation Wind Pressure Humidity
    00:00 +5°C° 0.3 mm 5 mps 755 mmHg 78%
    01:00 +5°C° 0.3 mm 5 mps 755 mmHg 79%
    02:00 +5°C° 0.2 mm 5 mps 755 mmHg 80%
    03:00 +5°C° 0.2 mm 5 mps 755 mmHg 81%
    04:00 +6°C° 0.2 mm 5 mps 755 mmHg 82%
    05:00 +6°C° 0.2 mm 5 mps 755 mmHg 84%
    06:00 +6°C° 0.2 mm 4 mps 755 mmHg 86%
    07:00 +6°C° 0.2 mm 4 mps 755 mmHg 88%
    08:00 +7°C° 0.3 mm 5 mps 755 mmHg 87%
    09:00 +8°C° 0.3 mm 5 mps 756 mmHg 86%
    10:00 +8°C° 0.3 mm 5 mps 756 mmHg 85%
    11:00 +8°C° 0.5 mm 5 mps 756 mmHg 86%
    12:00 +8°C° 0.5 mm 6 mps 756 mmHg 88%
    13:00 +9°C° 0.5 mm 6 mps 756 mmHg 89%
    14:00 +8°C° 0.7 mm 6 mps 756 mmHg 90%
    15:00 +8°C° 0.7 mm 6 mps 756 mmHg 91%
    16:00 +8°C° 0.7 mm 6 mps 756 mmHg 91%
    17:00 +7°C° 0.6 mm 6 mps 756 mmHg 90%
    18:00 +7°C° 0.6 mm 5 mps 757 mmHg 89%
    19:00 +7°C° 0.6 mm 5 mps 757 mmHg 88%
    20:00 +7°C° 0.3 mm 5 mps 757 mmHg 86%
    21:00 +7°C° 0.3 mm 5 mps 757 mmHg 84%
    22:00 +7°C° 0.3 mm 6 mps 758 mmHg 82%
    23:00 +7°C° 0.1 mm 6 mps 758 mmHg 82%

    15 December, Saturday

    Time Temperature Precipitation Wind Pressure Humidity
    00:00 +7°C° 0.1 mm 6 mps 758 mmHg 81%
    01:00 +5°C° 0.1 mm 6 mps 758 mmHg 80%
    02:00 +5°C° 0.1 mm 7 mps 758 mmHg 80%
    03:00 +5°C° 0.1 mm 7 mps 758 mmHg 80%
    04:00 +5°C° 0.1 mm 7 mps 758 mmHg 80%
    05:00 +5°C° 0 mm 7 mps 758 mmHg 79%
    06:00 +4°C° 0 mm 8 mps 758 mmHg 78%
    07:00 +4°C° 0 mm 8 mps 759 mmHg 77%
    08:00 +5°C° 0 mm 8 mps 759 mmHg 75%
    09:00 +5°C° 0 mm 8 mps 760 mmHg 73%
    10:00 +5°C° 0 mm 8 mps 760 mmHg 71%
    11:00 +5°C° 0 mm 8 mps 760 mmHg 70%
    12:00 +5°C° 0 mm 8 mps 760 mmHg 70%
    13:00 +5°C° 0 mm 9 mps 761 mmHg 70%
    14:00 +5°C° 0 mm 9 mps 761 mmHg 70%
    15:00 +5°C° 0 mm 9 mps 761 mmHg 70%
    16:00 +5°C° 0 mm 9 mps 762 mmHg 70%
    17:00 +5°C° 0 mm 8 mps 762 mmHg 71%
    18:00 +4°C° 0 mm 8 mps 763 mmHg 72%
    19:00 +4°C° 0 mm 7 mps 763 mmHg 73%
    20:00 +4°C° 0 mm 7 mps 763 mmHg 73%
    21:00 +4°C° 0 mm 6 mps 764 mmHg 73%
    22:00 +4°C° 0 mm 6 mps 764 mmHg 73%
    23:00 +4°C° 0 mm 6 mps 764 mmHg 73%

    16 December, Sunday

    Time Temperature Precipitation Wind Pressure Humidity
    00:00 +4°C° 0 mm 6 mps 764 mmHg 73%
    01:00 +3°C° 0 mm 6 mps 764 mmHg 74%
    02:00 +3°C° 0 mm 6 mps 765 mmHg 73%
    03:00 +3°C° 0 mm 5 mps 765 mmHg 73%
    04:00 +3°C° 0 mm 5 mps 765 mmHg 73%
    05:00 +2°C° 0 mm 5 mps 765 mmHg 73%
    06:00 +3°C° 0 mm 4 mps 765 mmHg 72%
    07:00 +3°C° 0 mm 4 mps 765 mmHg 72%
    08:00 +4°C° 0 mm 4 mps 765 mmHg 68%
    09:00 +5°C° 0 mm 4 mps 765 mmHg 65%
    10:00 +6°C° 0 mm 4 mps 766 mmHg 61%
    11:00 +7°C° 0 mm 4 mps 765 mmHg 59%
    12:00 +8°C° 0 mm 4 mps 765 mmHg 56%
    13:00 +8°C° 0 mm 4 mps 764 mmHg 54%
    14:00 +9°C° 0 mm 3 mps 764 mmHg 58%
    15:00 +8°C° 0 mm 3 mps 764 mmHg 62%
    16:00 +8°C° 0 mm 3 mps 764 mmHg 66%
    17:00 +7°C° 0 mm 3 mps 764 mmHg 68%
    18:00 +7°C° 0 mm 2 mps 764 mmHg 70%
    19:00 +6°C° 0 mm 2 mps 765 mmHg 71%
    20:00 +6°C° 0 mm 2 mps 765 mmHg 70%
    21:00 +6°C° 0 mm 2 mps 765 mmHg 69%
    22:00 +6°C° 0 mm 2 mps 765 mmHg 68%
    23:00 +6°C° 0 mm 2 mps 765 mmHg 66%
    Show more